HULIANWANG DIGUI 5E

Last updated on Wed Aug 13 2025 00:02:07 GMT+0000 (Coordinated Universal Time)

1 64960U 25159E 25224.55275485 .00000131 00000+0 13806-3 0 9998 2 64960 86.4957 27.1068 0001428 92.3770 267.7551 13.66346724 2190
UTC large
Height (km)
Speed (km/s)
/
Latitude / Longitude
Inclination (degrees)
Orbital Period (minutes)
Azimuth
Elevation
Range (km)
Doppler Factor

Next 0 passes for location: London (51.5072 / 0.1276)

Sorry there are no passes over London.
HULIANWANG DIGUI 5E